| time (UTC) | temp F | wind direction | speed knots | gust knots | rain 1hr in | rain 24hr in | rain mn in | humidity % | barometer mb |
| 20260506043504 | 48 | 40 | 2.6 | 7.0 | 0.00 | 0.00 | 0.00 | 75 | 1012.9 |
| 20260506043004 | 48 | 106 | 1.7 | 5.2 | 0.00 | 0.00 | 0.00 | 75 | 1012.9 |
| 20260506042503 | 48 | 80 | 1.7 | 10.4 | 0.00 | 0.00 | 0.00 | 74 | 1012.9 |
| 20260506042004 | 48 | 77 | 2.6 | 7.0 | 0.00 | 0.00 | 0.00 | 74 | 1012.9 |
| 20260506041504 | 48 | 87 | 2.6 | 7.0 | 0.00 | 0.00 | 0.00 | 74 | 1012.8 |
| 20260506041003 | 48 | 67 | 2.6 | 5.2 | 0.00 | 0.00 | 0.00 | 74 | 1012.9 |
| 20260506040503 | 49 | 71 | 1.7 | 4.3 | 0.00 | 0.00 | 0.00 | 75 | 1012.9 |
| 20260506040004 | 49 | 73 | 1.7 | 4.3 | 0.00 | 0.00 | 0.00 | 74 | 1012.8 |
| 20260506035504 | 49 | 86 | 2.6 | 7.8 | 0.00 | 0.00 | 0.00 | 74 | 1012.8 |
| 20260506035004 | 49 | 75 | 4.3 | 7.8 | 0.00 | 0.00 | 0.00 | 74 | 1012.8 |
| 20260506034504 | 49 | 76 | 4.3 | 8.7 | 0.00 | 0.00 | 0.00 | 74 | 1012.9 |
| 20260506034004 | 49 | 73 | 3.5 | 10.4 | 0.00 | 0.00 | 0.00 | 75 | 1012.9 |
| 20260506033503 | 49 | 46 | 3.5 | 10.4 | 0.00 | 0.00 | 0.00 | 75 | 1012.9 |
| 20260506033005 | 49 | 64 | 2.6 | 6.1 | 0.00 | 0.00 | 0.00 | 75 | 1012.9 |
| 20260506032503 | 49 | 73 | 2.6 | 7.8 | 0.00 | 0.00 | 0.00 | 75 | 1012.9 |
| 20260506032004 | 49 | 67 | 4.3 | 7.8 | 0.00 | 0.00 | 0.00 | 76 | 1012.8 |
| 20260506031504 | 49 | 86 | 2.6 | 5.2 | 0.00 | 0.00 | 0.00 | 77 | 1012.8 |
| 20260506031004 | 49 | 62 | 1.7 | 4.3 | 0.00 | 0.00 | 0.00 | 77 | 1012.9 |
| 20260506030504 | 49 | 53 | 2.6 | 7.8 | 0.00 | 0.00 | 0.00 | 77 | 1012.8 |
| 20260506030004 | 50 | 37 | 1.7 | 4.3 | 0.00 | 0.00 | 0.00 | 77 | 1012.8 |
| 20260506025503 | 50 | 43 | 2.6 | 7.8 | 0.00 | 0.00 | 0.00 | 77 | 1012.8 |
| 20260506025004 | 50 | 63 | 3.5 | 7.8 | 0.00 | 0.00 | 0.00 | 77 | 1012.9 |
| 20260506024503 | 50 | 57 | 2.6 | 4.3 | 0.00 | 0.00 | 0.00 | 76 | 1012.9 |
| 20260506024004 | 50 | 56 | 2.6 | 7.0 | 0.00 | 0.00 | 0.00 | 77 | 1012.9 |
| 20260506023504 | 50 | 39 | 2.6 | 5.2 | 0.00 | 0.00 | 0.00 | 76 | 1012.9 |
| 20260506023004 | 50 | 45 | 2.6 | 7.0 | 0.00 | 0.00 | 0.00 | 76 | 1012.9 |
| 20260506022503 | 50 | 48 | 4.3 | 8.7 | 0.00 | 0.00 | 0.00 | 76 | 1012.9 |
| 20260506022004 | 50 | 53 | 2.6 | 7.8 | 0.00 | 0.00 | 0.00 | 76 | 1012.9 |
| 20260506021503 | 50 | 27 | 3.5 | 5.2 | 0.00 | 0.00 | 0.00 | 76 | 1012.9 |
| 20260506021004 | 50 | 47 | 2.6 | 5.2 | 0.00 | 0.00 | 0.00 | 76 | 1012.8 |
| 20260506020503 | 50 | 38 | 3.5 | 7.8 | 0.00 | 0.00 | 0.00 | 76 | 1012.9 |
| 20260506020004 | 50 | 41 | 1.7 | 2.6 | 0.00 | 0.00 | 0.00 | 76 | 1012.9 |
| 20260506015503 | 50 | 40 | 3.5 | 7.0 | 0.00 | 0.00 | 0.00 | 76 | 1012.9 |
| 20260506015003 | 50 | 34 | 2.6 | 7.0 | 0.00 | 0.00 | 0.00 | 75 | 1012.9 |
| 20260506014503 | 50 | 53 | 1.7 | 5.2 | 0.00 | 0.00 | 0.00 | 75 | 1012.9 |
| 20260506014005 | 50 | 25 | 4.3 | 8.7 | 0.00 | 0.00 | 0.00 | 75 | 1012.9 |
| 20260506013504 | 50 | 41 | 4.3 | 7.8 | 0.00 | 0.00 | 0.00 | 75 | 1012.9 |
| 20260506013004 | 50 | 42 | 3.5 | 7.8 | 0.00 | 0.00 | 0.00 | 75 | 1013.0 |
| 20260506012503 | 50 | 37 | 2.6 | 7.0 | 0.00 | 0.00 | 0.00 | 75 | 1013.0 |
| 20260506012004 | 50 | 42 | 1.7 | 7.0 | 0.00 | 0.00 | 0.00 | 75 | 1013.1 |
| 20260506011504 | 50 | 48 | 2.6 | 7.8 | 0.00 | 0.00 | 0.00 | 74 | 1013.1 |
| 20260506011004 | 50 | 34 | 2.6 | 7.8 | 0.00 | 0.00 | 0.00 | 74 | 1013.1 |
| 20260506010503 | 50 | 44 | 4.3 | 8.7 | 0.00 | 0.00 | 0.00 | 74 | 1013.1 |
| 20260506010003 | 50 | 19 | 4.3 | 8.7 | 0.00 | 0.00 | 0.00 | 74 | 1013.1 |
| 20260506005504 | 51 | 41 | 1.7 | 7.8 | 0.00 | 0.00 | 0.00 | 74 | 1013.1 |
| 20260506005003 | 51 | 52 | 3.5 | 11.3 | 0.00 | 0.00 | 0.00 | 74 | 1013.1 |
| 20260506004004 | 51 | 28 | 2.6 | 11.3 | 0.00 | 0.00 | 0.00 | 73 | 1013.1 |
| 20260506003503 | 51 | 17 | 2.6 | 7.0 | 0.00 | 0.00 | 0.00 | 73 | 1013.2 |
| 20260506003004 | 51 | 42 | 3.5 | 5.2 | 0.00 | 0.00 | 0.00 | 73 | 1013.2 |
| 20260506001504 | 51 | 47 | 4.3 | 10.4 | 0.00 | 0.00 | 0.00 | 72 | 1013.3 |
| 20260506000504 | 51 | 43 | 5.2 | 10.4 | 0.00 | 0.00 | 0.00 | 72 | 1013.2 |
| 20260506000004 | 51 | 30 | 2.6 | 8.7 | 0.00 | 0.00 | 0.00 | 72 | 1013.2 |
| 20260505235504 | 51 | 26 | 2.6 | 6.1 | 0.00 | 0.00 | 0.00 | 71 | 1013.2 |
| 20260505235003 | 51 | 44 | 5.2 | 10.4 | 0.00 | 0.00 | 0.00 | 71 | 1013.2 |
| 20260505234503 | 51 | 34 | 1.7 | 7.0 | 0.00 | 0.00 | 0.00 | 71 | 1013.2 |
| 20260505234004 | 51 | 55 | 3.5 | 7.8 | 0.00 | 0.00 | 0.00 | 71 | 1013.3 |
| 20260505233504 | 51 | 78 | 2.6 | 4.3 | 0.00 | 0.00 | 0.00 | 71 | 1013.2 |
| 20260505233004 | 51 | 78 | 1.7 | 6.1 | 0.00 | 0.00 | 0.00 | 71 | 1013.2 |
| 20260505232503 | 51 | 80 | 1.7 | 2.6 | 0.00 | 0.00 | 0.00 | 71 | 1013.2 |
| 20260505232004 | 51 | 80 | 1.7 | 2.6 | 0.00 | 0.00 | 0.00 | 71 | 1013.2 |
| 20260505231503 | 51 | 57 | 0.9 | 2.6 | 0.00 | 0.00 | 0.00 | 70 | 1013.3 |
| 20260505231003 | 51 | 54 | 0.9 | 1.7 | 0.00 | 0.00 | 0.00 | 70 | 1013.3 |
| 20260505230504 | 51 | 54 | 1.7 | 2.6 | 0.00 | 0.00 | 0.00 | 70 | 1013.3 |
| 20260505230003 | 51 | 52 | 0.9 | 2.6 | 0.00 | 0.00 | 0.00 | 70 | 1013.3 |
| 20260505225004 | 51 | 53 | 1.7 | 2.6 | 0.00 | 0.00 | 0.00 | 70 | 1013.4 |
| 20260505224504 | 51 | 51 | 1.7 | 2.6 | 0.00 | 0.00 | 0.00 | 70 | 1013.4 |
| 20260505224004 | 51 | 50 | 1.7 | 2.6 | 0.00 | 0.00 | 0.00 | 70 | 1013.4 |
| 20260505223503 | 51 | 48 | 1.7 | 2.6 | 0.00 | 0.00 | 0.00 | 69 | 1013.4 |
| 20260505222504 | 51 | 90 | 1.7 | 5.2 | 0.00 | 0.00 | 0.00 | 69 | 1013.4 |
| 20260505222003 | 51 | 92 | 1.7 | 2.6 | 0.00 | 0.00 | 0.00 | 70 | 1013.4 |
| 20260505221503 | 51 | 92 | 4.3 | 6.1 | 0.00 | 0.00 | 0.00 | 69 | 1013.5 |
| 20260505221004 | 51 | 67 | 0.9 | 1.7 | 0.00 | 0.00 | 0.00 | 69 | 1013.5 |
| 20260505215004 | 51 | 65 | 1.7 | 2.6 | 0.00 | 0.00 | 0.00 | 69 | 1013.4 |
| 20260505214504 | 51 | 62 | 0.9 | 1.7 | 0.00 | 0.00 | 0.00 | 69 | 1013.4 |
| 20260505214005 | 51 | 61 | 0.9 | 2.6 | 0.00 | 0.00 | 0.00 | 70 | 1013.4 |
| 20260505213503 | 51 | 62 | 0.9 | 1.7 | 0.00 | 0.00 | 0.00 | 70 | 1013.4 |
| 20260505213003 | 52 | 62 | 0.0 | 0.0 | 0.00 | 0.00 | 0.00 | 70 | 1013.5 |
| 20260505211504 | 52 | 62 | 0.9 | 4.3 | 0.00 | 0.00 | 0.00 | 69 | 1013.6 |
| 20260505211004 | 52 | 64 | 0.9 | 2.6 | 0.00 | 0.00 | 0.00 | 69 | 1013.6 |
| 20260505210503 | 52 | 63 | 0.9 | 2.6 | 0.00 | 0.00 | 0.00 | 69 | 1013.6 |
| 20260505210004 | 52 | 62 | 0.9 | 2.6 | 0.00 | 0.00 | 0.00 | 68 | 1013.5 |
| 20260505205004 | 52 | 59 | 1.7 | 2.6 | 0.00 | 0.00 | 0.00 | 68 | 1013.4 |
| 20260505204503 | 52 | 57 | 1.7 | 2.6 | 0.00 | 0.00 | 0.00 | 68 | 1013.4 |
| 20260505203505 | 52 | 61 | 1.7 | 4.3 | 0.00 | 0.00 | 0.00 | 68 | 1013.4 |
| 20260505203004 | 53 | 29 | 2.6 | 5.2 | 0.00 | 0.00 | 0.00 | 67 | 1013.3 |
| 20260505202503 | 53 | 46 | 1.7 | 5.2 | 0.00 | 0.00 | 0.00 | 67 | 1013.3 |
| 20260505202004 | 53 | 44 | 2.6 | 6.1 | 0.00 | 0.00 | 0.00 | 67 | 1013.2 |
| 20260505201004 | 53 | 8 | 3.5 | 8.7 | 0.00 | 0.00 | 0.00 | 66 | 1013.2 |
| 20260505200504 | 53 | 38 | 3.5 | 8.7 | 0.00 | 0.00 | 0.00 | 66 | 1013.2 |
| 20260505200005 | 53 | 34 | 4.3 | 7.8 | 0.00 | 0.00 | 0.00 | 66 | 1013.1 |
| 20260505195003 | 53 | 355 | 1.7 | 4.3 | 0.00 | 0.00 | 0.00 | 67 | 1013.0 |
| 20260505194505 | 53 | 7 | 1.7 | 7.0 | 0.00 | 0.00 | 0.00 | 67 | 1012.9 |
| 20260505194003 | 54 | 36 | 2.6 | 8.7 | 0.00 | 0.00 | 0.00 | 65 | 1012.8 |
| 20260505193503 | 54 | 44 | 1.7 | 6.1 | 0.00 | 0.00 | 0.00 | 64 | 1012.8 |
| 20260505193003 | 54 | 20 | 2.6 | 6.1 | 0.00 | 0.00 | 0.00 | 64 | 1012.8 |
| 20260505192504 | 54 | 26 | 3.5 | 8.7 | 0.00 | 0.00 | 0.00 | 63 | 1012.7 |
| 20260505192003 | 54 | 31 | 4.3 | 7.8 | 0.00 | 0.00 | 0.00 | 62 | 1012.7 |
| 20260505191004 | 54 | 48 | 2.6 | 7.8 | 0.00 | 0.00 | 0.00 | 61 | 1012.7 |
| 20260505190503 | 55 | 44 | 2.6 | 6.1 | 0.00 | 0.00 | 0.00 | 62 | 1012.6 |
| 20260505185004 | 55 | 37 | 3.5 | 7.8 | 0.00 | 0.00 | 0.00 | 61 | 1012.6 |
| 20260505184504 | 55 | 34 | 3.5 | 7.8 | 0.00 | 0.00 | 0.00 | 62 | 1012.6 |
| 20260505183004 | 55 | 41 | 4.3 | 7.8 | 0.00 | 0.00 | 0.00 | 61 | 1012.6 |
| 20260505182504 | 55 | 42 | 4.3 | 10.4 | 0.00 | 0.00 | 0.00 | 61 | 1012.5 |
| 20260505181504 | 55 | 59 | 4.3 | 8.7 | 0.00 | 0.00 | 0.00 | 61 | 1012.5 |
| 20260505180503 | 56 | 36 | 5.2 | 11.3 | 0.00 | 0.00 | 0.00 | 62 | 1012.5 |
| 20260505180005 | 56 | 41 | 5.2 | 12.2 | 0.00 | 0.00 | 0.00 | 61 | 1012.5 |
| 20260505174003 | 57 | 31 | 4.3 | 10.4 | 0.00 | 0.00 | 0.00 | 59 | 1012.5 |
| 20260505173504 | 57 | 25 | 4.3 | 8.7 | 0.00 | 0.00 | 0.00 | 59 | 1012.5 |
| 20260505173003 | 57 | 40 | 5.2 | 10.4 | 0.00 | 0.00 | 0.00 | 58 | 1012.5 |
| 20260505172503 | 57 | 19 | 5.2 | 10.4 | 0.00 | 0.00 | 0.00 | 58 | 1012.6 |
| 20260505172004 | 57 | 32 | 4.3 | 8.7 | 0.00 | 0.00 | 0.00 | 58 | 1012.6 |
| 20260505171503 | 58 | 48 | 6.1 | 11.3 | 0.00 | 0.00 | 0.00 | 56 | 1012.6 |
| 20260505171004 | 58 | 38 | 4.3 | 10.4 | 0.00 | 0.00 | 0.00 | 57 | 1012.6 |
| 20260505170004 | 58 | 61 | 5.2 | 11.3 | 0.00 | 0.00 | 0.00 | 57 | 1012.5 |
| 20260505165503 | 58 | 64 | 4.3 | 12.2 | 0.00 | 0.00 | 0.00 | 57 | 1012.5 |
| 20260505165003 | 58 | 57 | 5.2 | 10.4 | 0.00 | 0.00 | 0.00 | 57 | 1012.5 |
| 20260505164504 | 58 | 63 | 4.3 | 8.7 | 0.00 | 0.00 | 0.00 | 56 | 1012.6 |
| 20260505163503 | 58 | 70 | 2.6 | 8.7 | 0.00 | 0.00 | 0.00 | 56 | 1012.5 |
| 20260505163006 | 58 | 64 | 5.2 | 11.3 | 0.00 | 0.00 | 0.00 | 58 | 1012.5 |
| 20260505162504 | 58 | 39 | 5.2 | 11.3 | 0.00 | 0.00 | 0.00 | 57 | 1012.5 |
| 20260505162004 | 59 | 21 | 4.3 | 10.4 | 0.00 | 0.00 | 0.00 | 58 | 1012.5 |
| 20260505161503 | 59 | 351 | 5.2 | 10.4 | 0.00 | 0.00 | 0.00 | 57 | 1012.6 |
| 20260505161004 | 59 | 47 | 5.2 | 10.4 | 0.00 | 0.00 | 0.00 | 61 | 1012.5 |
| 20260505160503 | 59 | 39 | 4.3 | 12.2 | 0.00 | 0.00 | 0.00 | 59 | 1012.5 |
| 20260505153003 | 59 | 13 | 6.1 | 13.9 | 0.00 | 0.00 | 0.00 | 60 | 1012.7 |
| 20260505152503 | 59 | 350 | 6.1 | 10.4 | 0.00 | 0.00 | 0.00 | 60 | 1012.7 |
| 20260505151004 | 59 | 36 | 5.2 | 11.3 | 0.00 | 0.00 | 0.00 | 60 | 1012.7 |
| 20260505150504 | 59 | 56 | 5.2 | 12.2 | 0.00 | 0.00 | 0.00 | 60 | 1012.6 |
| 20260505140504 | 61 | 18 | 5.2 | 10.4 | 0.00 | 0.00 | 0.00 | 53 | 1012.8 |
| 20260505125003 | 61 | 325 | 5.2 | 11.3 | 0.00 | 0.00 | 0.00 | 52 | 1012.9 |
| 20260505123504 | 62 | 16 | 1.7 | 8.7 | 0.00 | 0.00 | 0.00 | 52 | 1012.8 |
| 20260505121504 | 62 | 7 | 4.3 | 8.7 | 0.00 | 0.00 | 0.00 | 54 | 1012.9 |
| 20260505120005 | 62 | 341 | 7.8 | 12.2 | 0.00 | 0.00 | 0.00 | 53 | 1013.0 |
| 20260505115504 | 61 | 323 | 5.2 | 10.4 | 0.00 | 0.00 | 0.00 | 58 | 1013.0 |
| 20260505115004 | 61 | 345 | 4.3 | 10.4 | 0.00 | 0.00 | 0.00 | 52 | 1013.0 |
| 20260505114004 | 62 | 271 | 1.7 | 7.0 | 0.00 | 0.00 | 0.00 | 51 | 1013.1 |
| 20260505113505 | 62 | 335 | 2.6 | 7.0 | 0.00 | 0.00 | 0.00 | 54 | 1013.1 |
| 20260505113005 | 62 | 33 | 5.2 | 10.4 | 0.00 | 0.00 | 0.00 | 56 | 1013.2 |
| 20260505112504 | 62 | 301 | 5.2 | 8.7 | 0.00 | 0.00 | 0.00 | 52 | 1013.2 |
| 20260505112003 | 62 | 325 | 1.7 | 5.2 | 0.00 | 0.00 | 0.00 | 53 | 1013.2 |
| 20260505111004 | 62 | 332 | 3.5 | 7.8 | 0.00 | 0.00 | 0.00 | 52 | 1013.3 |
| 20260505102004 | 62 | 51 | 4.3 | 10.4 | 0.00 | 0.00 | 0.00 | 54 | 1013.5 |
| 20260505101503 | 62 | 332 | 5.2 | 11.3 | 0.00 | 0.00 | 0.00 | 55 | 1013.5 |
| 20260505101004 | 62 | 298 | 4.3 | 12.2 | 0.00 | 0.00 | 0.00 | 55 | 1013.5 |
| 20260505100504 | 62 | 41 | 4.3 | 8.7 | 0.00 | 0.00 | 0.00 | 58 | 1013.5 |
| 20260505100004 | 62 | 317 | 4.3 | 8.7 | 0.00 | 0.00 | 0.00 | 56 | 1013.5 |
| 20260505095503 | 62 | 36 | 4.3 | 8.7 | 0.00 | 0.00 | 0.00 | 58 | 1013.5 |
| 20260505095004 | 62 | 320 | 5.2 | 10.4 | 0.00 | 0.00 | 0.00 | 58 | 1013.5 |
| 20260505094004 | 61 | 0 | 1.7 | 8.7 | 0.00 | 0.00 | 0.00 | 60 | 1013.6 |
| 20260505093504 | 60 | 84 | 2.6 | 5.2 | 0.00 | 0.00 | 0.00 | 59 | 1013.5 |
| 20260505092503 | 59 | 45 | 4.3 | 7.8 | 0.00 | 0.00 | 0.00 | 63 | 1013.7 |
| 20260505090504 | 58 | 350 | 0.9 | 4.3 | 0.00 | 0.00 | 0.00 | 64 | 1013.8 |
| 20260505090004 | 57 | 72 | 1.7 | 6.1 | 0.00 | 0.00 | 0.00 | 64 | 1013.8 |
| 20260505085503 | 57 | 76 | 2.6 | 4.3 | 0.00 | 0.00 | 0.00 | 65 | 1013.8 |
| 20260505085004 | 57 | 77 | 4.3 | 7.0 | 0.00 | 0.00 | 0.00 | 64 | 1013.7 |
| 20260505084503 | 56 | 81 | 2.6 | 5.2 | 0.00 | 0.00 | 0.00 | 66 | 1013.8 |
| 20260505084004 | 56 | 40 | 4.3 | 7.0 | 0.00 | 0.00 | 0.00 | 67 | 1013.8 |
| 20260505083504 | 55 | 62 | 1.7 | 7.0 | 0.00 | 0.00 | 0.00 | 67 | 1013.9 |
| 20260505083004 | 55 | 37 | 3.5 | 7.8 | 0.00 | 0.00 | 0.00 | 67 | 1013.9 |
| 20260505082504 | 55 | 11 | 2.6 | 5.2 | 0.00 | 0.00 | 0.00 | 68 | 1013.9 |
| 20260505082004 | 54 | 32 | 3.5 | 7.0 | 0.00 | 0.00 | 0.00 | 67 | 1014.0 |
| 20260505081505 | 54 | 4 | 4.3 | 11.3 | 0.00 | 0.00 | 0.00 | 66 | 1013.9 |
| 20260505081003 | 55 | 12 | 3.5 | 7.8 | 0.00 | 0.00 | 0.00 | 65 | 1013.9 |
| 20260505080503 | 55 | 17 | 2.6 | 5.2 | 0.00 | 0.00 | 0.00 | 65 | 1013.9 |
| 20260505075503 | 55 | 13 | 4.3 | 7.8 | 0.00 | 0.00 | 0.00 | 64 | 1013.9 |
| 20260505074505 | 56 | 31 | 2.6 | 7.8 | 0.00 | 0.00 | 0.00 | 63 | 1013.9 |
| 20260505074004 | 56 | 49 | 3.5 | 10.4 | 0.00 | 0.00 | 0.00 | 64 | 1013.8 |
| 20260505073504 | 56 | 86 | 4.3 | 7.8 | 0.00 | 0.00 | 0.00 | 65 | 1013.8 |
| 20260505072503 | 55 | 52 | 3.5 | 7.8 | 0.00 | 0.00 | 0.00 | 66 | 1013.9 |
| 20260505072004 | 55 | 59 | 3.5 | 8.7 | 0.00 | 0.00 | 0.00 | 68 | 1014.0 |
| 20260505071503 | 54 | 33 | 2.6 | 8.7 | 0.00 | 0.00 | 0.00 | 69 | 1014.0 |
| 20260505071004 | 53 | 50 | 4.3 | 8.7 | 0.00 | 0.00 | 0.00 | 68 | 1013.9 |
| 20260505070504 | 52 | 57 | 2.6 | 7.8 | 0.00 | 0.00 | 0.00 | 70 | 1013.9 |
| 20260505065503 | 51 | 68 | 4.3 | 8.7 | 0.00 | 0.00 | 0.00 | 70 | 1013.9 |
| 20260505065003 | 51 | 38 | 1.7 | 6.1 | 0.00 | 0.00 | 0.00 | 71 | 1013.9 |
| 20260505064004 | 51 | 51 | 1.7 | 7.8 | 0.00 | 0.00 | 0.00 | 72 | 1013.9 |
| 20260505063503 | 51 | 81 | 1.7 | 6.1 | 0.00 | 0.00 | 0.00 | 73 | 1014.0 |
| 20260505063004 | 51 | 69 | 2.6 | 4.3 | 0.00 | 0.00 | 0.00 | 74 | 1013.9 |
| 20260505062504 | 51 | 68 | 1.7 | 2.6 | 0.00 | 0.00 | 0.00 | 73 | 1013.9 |
| 20260505062004 | 51 | 85 | 1.7 | 2.6 | 0.00 | 0.01 | 0.00 | 73 | 1013.9 |
| 20260505061504 | 51 | 76 | 0.9 | 2.6 | 0.00 | 0.02 | 0.00 | 73 | 1013.9 |
| 20260505061003 | 51 | 74 | 1.7 | 2.6 | 0.00 | 0.03 | 0.00 | 74 | 1013.9 |
| 20260505060503 | 51 | 71 | 1.7 | 2.6 | 0.00 | 0.05 | 0.00 | 74 | 1013.9 |
| 20260505055003 | 50 | 53 | 1.7 | 5.2 | 0.00 | 0.13 | 0.00 | 74 | 1013.9 |
| 20260505053504 | 50 | 49 | 1.7 | 7.0 | 0.00 | 0.13 | 0.00 | 78 | 1013.8 |
| 20260505053003 | 50 | 38 | 2.6 | 7.0 | 0.00 | 0.13 | 0.00 | 79 | 1013.9 |
| 20260505052504 | 50 | 66 | 1.7 | 4.3 | 0.00 | 0.13 | 0.00 | 80 | 1013.9 |
| 20260505052003 | 50 | 70 | 1.7 | 2.6 | 0.00 | 0.13 | 0.00 | 80 | 1013.8 |
| 20260505051504 | 50 | 70 | 0.9 | 2.6 | 0.00 | 0.13 | 0.00 | 80 | 1013.8 |
| 20260505051003 | 50 | 70 | 1.7 | 4.3 | 0.00 | 0.13 | 0.00 | 80 | 1013.8 |